Regional Weather Roundup
Issued by NWS

Home | Current Version | Previous Version | Graphics & Text | Print | Product List | Glossary On
Versions: 1 2 3 4 5 6 7 8 9 10 11 12 13 14 15 16 17 18 19 20 21 22 23 24 25 26 27 28 29
000
ASUS45 KCYS 221110
RWRWY

WYOMING REGIONAL WEATHER ROUNDUP
NATIONAL WEATHER SERVICE CHEYENNE WY
500 AM MDT WED OCT 22 2014

NOTE:  "FAIR" INDICATES FEW OR NO CLOUDS BELOW 12,000 FEET
WITH NO SIGNIFICANT WEATHER AND/OR OBSTRUCTIONS TO VISIBILITY.

WYZ001-221200-
YELLOWSTONE NATIONAL PARK

CITY           SKY/WX    TMP DP  RH WIND       PRES   REMARKS
LK YELLOWSTONE   N/A     28  26  92 VRB3      30.14S
W YELLOWSTONE  NOT AVBL

$$
WYZ002>013-054>058-071-098>099-221200-
NORTHERN WYOMING

CITY           SKY/WX    TMP DP  RH WIND       PRES   REMARKS
JACKSON        PTCLDY    34  30  86 SW3       30.14R
CODY           CLEAR    N/A N/A N/A W6        30.01S
GREYBULL       CLEAR     34  24  67 SE3       30.01R
WORLAND        FLURRIES  32  22  66 S8        30.01R WCI  25
SHERIDAN       CLEAR     34  26  72 S7        29.99R WCI  28
BUFFALO        CLEAR     40  25  55 CALM      30.02R
GILLETTE       PTCLDY    37  29  72 W9        30.00R WCI  30
HULETT         FAIR      45  34  65 W6        30.00
NEWCASTLE      FAIR      46  30  53 NW15G21   29.98

$$
WYZ014>020-022>026-101>103-221200-
CENTRAL WYOMING

CITY           SKY/WX    TMP DP  RH WIND       PRES   REMARKS
BIG PINEY      CLEAR     20  16  84 E3        30.17R
PINEDALE       MOSUNNY   23  21  93 CALM      30.18R
DUBOIS         FAIR      36  23  60 W20       30.09S WCI  25
LANDER         CLEAR     32  23  69 NW7       30.04R WCI  26
RIVERTON       CLEAR     38  22  52 W9        30.05S WCI  31
CASPER         PTCLDY    39  22  50 W9        30.04R WCI  33
DOUGLAS        CLOUDY    47  24  40 W8        30.03R

$$
WYZ021-027>030-104>119-221200-
SOUTHERN WYOMING

CITY           SKY/WX    TMP DP  RH WIND       PRES   REMARKS
EVANSTON       CLEAR     33  25  72 NE3       30.17R
FORT BRIDGER     N/A     30  26  86 W6        30.20R WCI  24
ROCK SPRINGS   CLEAR     33  26  75 SW8       30.16R WCI  26
DIXON          FAIR      40  38  93 CALM      30.16R
RAWLINS        CLEAR     38  31  76 W17       30.12R WCI  28
SARATOGA       FAIR      37  34  87 W9        30.14R WCI  31
LARAMIE        CLOUDY    44  34  67 W15G26    30.09R
CHEYENNE       PTCLDY    47  36  65 NW6       30.05R
TORRINGTON     CLOUDY    53  43  68 W10       29.95R
PINE BLUFFS    FAIR      45  41  87 NW6       30.02R

$$



USA.gov is the U.S. government's official web portal to all federal, state and local government web resources and services.